| time (UTC) | temp F | wind direction | speed MPH | gust MPH | rain 1hr in | rain 24hr in | rain mn in | humidity % | barometer mb |
| 20260506134540 | 47 | 336 | 2.0 | 6.0 | 0.09 | 0.22 | 0.14 | 93 | 1007.3 |
| 20260506133037 | 48 | 234 | 1.0 | 8.0 | 0.07 | 0.19 | 0.11 | 93 | 1007.1 |
| 20260506131538 | 48 | 293 | 0.0 | 8.0 | 0.06 | 0.17 | 0.09 | 93 | 1007.3 |
| 20260506130033 | 50 | 342 | 2.0 | 8.0 | 0.04 | 0.15 | 0.07 | 93 | 1007.3 |
| 20260506124531 | 50 | 262 | 1.0 | 7.0 | 0.02 | 0.13 | 0.05 | 93 | 1007.7 |
| 20260506123036 | 51 | 297 | 0.0 | 11.0 | 0.00 | 0.11 | 0.03 | 93 | 1007.4 |
| 20260506121522 | 53 | 10 | 3.0 | 8.0 | 0.00 | 0.11 | 0.03 | 93 | 1007.2 |
| 20260506120034 | 53 | 284 | 1.0 | 5.0 | 0.00 | 0.11 | 0.03 | 93 | 1007.2 |
| 20260506114525 | 53 | 291 | 1.0 | 4.0 | 0.00 | 0.11 | 0.03 | 93 | 1007.1 |
| 20260506113020 | 53 | 268 | 1.0 | 4.0 | 0.00 | 0.11 | 0.03 | 93 | 1007.2 |
| 20260506111520 | 53 | 304 | 0.0 | 3.0 | 0.00 | 0.11 | 0.03 | 93 | 1007.2 |
| 20260506110024 | 53 | 333 | 0.0 | 2.0 | 0.00 | 0.11 | 0.03 | 93 | 1006.9 |
| 20260506104519 | 53 | 335 | 0.0 | 0.0 | 0.00 | 0.11 | 0.03 | 93 | 1006.8 |
| 20260506103026 | 53 | 335 | 0.0 | 0.0 | 0.00 | 0.11 | 0.03 | 93 | 1006.8 |
| 20260506101520 | 53 | 335 | 0.0 | 0.0 | 0.00 | 0.11 | 0.03 | 93 | 1006.7 |
| 20260506100017 | 53 | 334 | 0.0 | 1.0 | 0.00 | 0.11 | 0.03 | 93 | 1007.0 |
| 20260506094527 | 53 | 336 | 0.0 | 0.0 | 0.00 | 0.11 | 0.03 | 92 | 1006.7 |
| 20260506093023 | 53 | 336 | 0.0 | 0.0 | 0.00 | 0.11 | 0.03 | 92 | 1007.0 |
| 20260506091512 | 53 | 336 | 0.0 | 0.0 | 0.00 | 0.11 | 0.03 | 92 | 1006.9 |
| 20260506090010 | 54 | 336 | 0.0 | 0.0 | 0.00 | 0.11 | 0.03 | 92 | 1007.1 |
| 20260506084508 | 54 | 336 | 0.0 | 0.0 | 0.00 | 0.11 | 0.03 | 92 | 1007.2 |
| 20260506083006 | 54 | 336 | 0.0 | 1.0 | 0.00 | 0.11 | 0.03 | 92 | 1007.5 |
| 20260506081505 | 55 | 336 | 0.0 | 0.0 | 0.00 | 0.11 | 0.03 | 92 | 1007.8 |
| 20260506073105 | 55 | 336 | 0.0 | 0.0 | 0.01 | 0.11 | 0.03 | 92 | 1007.5 |
| 20260506071602 | 56 | 336 | 0.0 | 0.0 | 0.01 | 0.11 | 0.03 | 92 | 1007.6 |
| 20260506070116 | 56 | 336 | 0.0 | 1.0 | 0.01 | 0.11 | 0.03 | 92 | 1007.7 |
| 20260506061553 | 57 | 351 | 0.0 | 0.0 | 0.00 | 0.10 | 0.02 | 92 | 1007.8 |
| 20260506044554 | 57 | 61 | 0.0 | 0.0 | 0.06 | 0.10 | 0.02 | 91 | 1008.2 |
| 20260506043046 | 57 | 61 | 0.0 | 0.0 | 0.05 | 0.09 | 0.01 | 91 | 1008.1 |
| 20260506041550 | 58 | 61 | 0.0 | 1.0 | 0.05 | 0.09 | 0.01 | 91 | 1007.7 |
| 20260506040043 | 57 | 61 | 0.0 | 0.0 | 0.03 | 0.07 | 0.07 | 91 | 1007.9 |
| 20260506034538 | 57 | 42 | 0.0 | 1.0 | 0.00 | 0.04 | 0.04 | 90 | 1007.7 |
| 20260506033036 | 57 | 42 | 0.0 | 0.0 | 0.00 | 0.04 | 0.04 | 90 | 1007.5 |
| 20260506031548 | 57 | 42 | 0.0 | 0.0 | 0.00 | 0.04 | 0.04 | 90 | 1007.5 |
| 20260506030036 | 57 | 42 | 0.0 | 1.0 | 0.00 | 0.04 | 0.04 | 90 | 1007.2 |
| 20260506024536 | 57 | 42 | 0.0 | 2.0 | 0.00 | 0.04 | 0.04 | 89 | 1006.9 |
| 20260506023033 | 58 | 42 | 0.0 | 0.0 | 0.00 | 0.04 | 0.04 | 89 | 1007.0 |
| 20260506021532 | 58 | 42 | 0.0 | 0.0 | 0.00 | 0.04 | 0.04 | 89 | 1007.0 |
| 20260506020031 | 58 | 42 | 0.0 | 0.0 | 0.00 | 0.04 | 0.04 | 89 | 1007.2 |
| 20260506014530 | 58 | 42 | 0.0 | 0.0 | 0.00 | 0.04 | 0.04 | 88 | 1007.1 |
| 20260506013027 | 58 | 42 | 0.0 | 1.0 | 0.00 | 0.04 | 0.04 | 87 | 1006.7 |
| 20260506011528 | 58 | 42 | 0.0 | 0.0 | 0.00 | 0.04 | 0.04 | 86 | 1006.3 |
| 20260506010026 | 59 | 42 | 0.0 | 0.0 | 0.00 | 0.04 | 0.04 | 85 | 1006.0 |
| 20260506004531 | 60 | 42 | 0.0 | 0.0 | 0.00 | 0.04 | 0.04 | 85 | 1006.0 |
| 20260506003025 | 61 | 42 | 0.0 | 0.0 | 0.00 | 0.04 | 0.04 | 85 | 1005.9 |
| 20260506001524 | 61 | 42 | 0.0 | 0.0 | 0.00 | 0.04 | 0.04 | 83 | 1005.9 |
| 20260506000024 | 62 | 42 | 0.0 | 0.0 | 0.00 | 0.04 | 0.04 | 82 | 1005.8 |
| 20260505234552 | 62 | 42 | 0.0 | 3.0 | 0.00 | 0.04 | 0.04 | 81 | 1005.7 |
| 20260505233022 | 63 | 98 | 0.0 | 2.0 | 0.00 | 0.04 | 0.04 | 79 | 1006.1 |
| 20260505231523 | 63 | 107 | 0.0 | 3.0 | 0.00 | 0.04 | 0.04 | 77 | 1006.0 |
| 20260505230023 | 64 | 169 | 0.0 | 1.0 | 0.00 | 0.04 | 0.04 | 75 | 1006.0 |
| 20260505224529 | 64 | 169 | 0.0 | 0.0 | 0.00 | 0.04 | 0.04 | 75 | 1005.7 |
| 20260505223021 | 64 | 169 | 0.0 | 3.0 | 0.00 | 0.04 | 0.04 | 74 | 1005.2 |
| 20260505221521 | 64 | 119 | 1.0 | 3.0 | 0.00 | 0.04 | 0.04 | 73 | 1005.1 |
| 20260505220020 | 64 | 179 | 1.0 | 10.0 | 0.01 | 0.04 | 0.04 | 76 | 1005.5 |
| 20260505214523 | 64 | 163 | 1.0 | 4.0 | 0.01 | 0.04 | 0.04 | 82 | 1005.6 |
| 20260505213018 | 64 | 180 | 1.0 | 5.0 | 0.01 | 0.04 | 0.04 | 84 | 1005.3 |
| 20260505211518 | 64 | 199 | 0.0 | 3.0 | 0.01 | 0.04 | 0.04 | 84 | 1004.8 |
| 20260505210020 | 64 | 16 | 0.0 | 1.0 | 0.01 | 0.03 | 0.03 | 84 | 1004.1 |
| 20260505204524 | 63 | 16 | 1.0 | 5.0 | 0.03 | 0.03 | 0.03 | 83 | 1003.8 |
| 20260505203017 | 63 | 67 | 2.0 | 4.0 | 0.03 | 0.03 | 0.03 | 83 | 1005.1 |
| 20260505201517 | 64 | 178 | 0.0 | 6.0 | 0.03 | 0.03 | 0.03 | 76 | 1005.0 |
| 20260505200023 | 68 | 204 | 3.0 | 15.0 | 0.02 | 0.02 | 0.02 | 69 | 1004.6 |
| 20260505194514 | 76 | 233 | 2.0 | 19.0 | 0.00 | 0.00 | 0.00 | 44 | 1002.5 |
| 20260505193013 | 77 | 196 | 8.0 | 23.0 | 0.00 | 0.00 | 0.00 | 38 | 1001.9 |
| 20260505191513 | 77 | 109 | 4.0 | 10.0 | 0.00 | 0.00 | 0.00 | 39 | 1001.7 |
| 20260505190013 | 78 | 142 | 5.0 | 13.0 | 0.00 | 0.00 | 0.00 | 39 | 1001.6 |
| 20260505184521 | 78 | 159 | 5.0 | 20.0 | 0.00 | 0.00 | 0.00 | 38 | 1001.8 |
| 20260505183031 | 80 | 119 | 4.0 | 11.0 | 0.00 | 0.00 | 0.00 | 39 | 1002.0 |
| 20260505181508 | 80 | 184 | 4.0 | 14.0 | 0.00 | 0.00 | 0.00 | 38 | 1002.3 |
| 20260505180006 | 79 | 146 | 4.0 | 13.0 | 0.00 | 0.00 | 0.00 | 39 | 1002.3 |
| 20260505174504 | 79 | 169 | 8.0 | 24.0 | 0.00 | 0.00 | 0.00 | 39 | 1002.7 |
| 20260505173004 | 78 | 196 | 5.0 | 16.0 | 0.00 | 0.00 | 0.00 | 40 | 1002.9 |
| 20260505171600 | 78 | 230 | 5.0 | 20.0 | 0.00 | 0.00 | 0.00 | 40 | 1003.0 |
| 20260505170101 | 77 | 130 | 4.0 | 17.0 | 0.00 | 0.00 | 0.00 | 41 | 1003.4 |
| 20260505164618 | 77 | 188 | 3.0 | 13.0 | 0.00 | 0.00 | 0.00 | 42 | 1003.8 |
| 20260505163053 | 77 | 95 | 3.0 | 11.0 | 0.00 | 0.00 | 0.00 | 44 | 1003.8 |
| 20260505161553 | 76 | 117 | 4.0 | 14.0 | 0.00 | 0.00 | 0.00 | 46 | 1004.1 |
| 20260505153045 | 70 | 82 | 2.0 | 13.0 | 0.00 | 0.00 | 0.00 | 52 | 1004.5 |
| 20260505151536 | 69 | 123 | 3.0 | 12.0 | 0.00 | 0.00 | 0.00 | 55 | 1005.0 |